Date String (YYYY-MM-DD hh:mm:ss) UTC,Instrument flags,Ambient pressure (hPa),Sample flow (lpm),Bypass flow (lpm),Sample temperature (°C),Ambient temperature (°C),ASC tube jacket temperature (°C),LED temperature (°C),Box temperature (°C),Sample RH (%),Span deviation,Mass concentration (μg/m³),Mass concentration (μg/m³),Mass concentration (μg/m³)
DateTimeUTC,F1_M11,P_M11,Q1_M11,Q2_M11,T1_M11,T2_M11,T3_M11,T4_M11,T5_M11,U1_M11,ZSPAN_M11,X0_M11,X2_M11,X1_M11
2022-01-06 02:00:00,,0824.0,4.99,0.00,21.5,21.5,00.0,30.8,23.0,05.6,0001.3,0011.65,0006.23,0005.39
2022-01-06 02:01:00,,0824.1,5.01,0.00,21.7,22.2,00.0,30.8,23.3,05.6,0001.5,0011.21,0006.24,0005.38
2022-01-06 02:02:00,,0824.0,4.99,0.00,21.8,22.7,00.0,30.8,23.6,05.5,0001.5,0011.62,0006.25,0005.38
2022-01-06 02:03:00,,0823.7,5.01,0.00,21.8,22.2,00.0,30.8,23.4,05.5,0001.6,0011.45,0006.20,0005.36
2022-01-06 02:04:00,,0823.8,4.99,0.00,21.7,21.7,00.0,30.8,23.1,05.6,0001.7,0011.30,0006.23,0005.37
2022-01-06 02:05:00,,0824.0,5.02,0.00,21.5,21.2,00.0,30.8,22.8,05.6,0001.8,0011.37,0006.26,0005.39
2022-01-06 02:06:00,,0824.0,5.00,0.00,21.4,20.8,00.0,30.7,22.6,05.7,0001.9,0011.57,0006.30,0005.38
2022-01-06 02:07:00,,0823.8,5.00,0.00,21.3,20.8,00.0,30.7,22.6,05.7,0001.8,0011.60,0006.30,0005.39
2022-01-06 02:08:00,,0823.9,5.00,0.00,21.4,21.5,00.0,30.7,23.0,05.7,0001.6,0011.59,0006.33,0005.42
2022-01-06 02:09:00,,0824.1,4.99,0.00,21.6,22.3,00.0,30.7,23.3,05.6,0001.5,0011.70,0006.39,0005.45
2022-01-06 02:10:00,,0824.1,5.01,0.00,21.8,22.9,00.0,30.8,23.6,05.6,0001.5,0011.91,0006.51,0005.48
2022-01-06 02:11:00,,0824.0,4.99,0.00,21.9,22.8,00.0,30.8,23.6,05.5,0001.2,0012.22,0006.58,0005.51
2022-01-06 02:12:00,,0824.0,5.00,0.00,21.7,22.2,00.0,30.8,23.3,05.5,0000.8,0012.22,0006.58,0005.51
2022-01-06 02:13:00,,0824.1,5.01,0.00,21.6,21.7,00.0,30.8,23.0,05.6,0000.8,0012.04,0006.62,0005.53
2022-01-06 02:14:00,,0824.0,4.99,0.00,21.5,21.2,00.0,30.7,22.8,05.6,0001.3,0011.92,0006.63,0005.56
2022-01-06 02:15:00,,0823.9,5.00,0.00,21.3,20.8,00.0,30.7,22.6,05.6,0001.6,0012.01,0006.67,0005.58
2022-01-06 02:16:00,,0823.7,5.01,0.00,21.2,20.7,00.0,30.6,22.5,05.7,0001.6,0011.90,0006.63,0005.56
2022-01-06 02:17:00,,0823.8,5.00,0.00,21.3,21.3,00.0,30.7,22.8,05.6,0001.3,0011.88,0006.64,0005.58
2022-01-06 02:18:00,,0824.0,4.99,0.00,21.5,22.0,00.0,30.7,23.2,05.6,0001.3,0012.01,0006.68,0005.60
2022-01-06 02:19:00,,0824.2,5.01,0.00,21.7,22.6,00.0,30.7,23.5,05.5,0001.5,0012.18,0006.72,0005.60
2022-01-06 02:20:00,,0824.2,4.99,0.00,21.8,22.5,00.0,30.7,23.5,05.5,0001.6,0012.38,0006.76,0005.61
2022-01-06 02:21:00,,0824.2,5.01,0.00,21.7,22.0,00.0,30.7,23.2,05.5,0001.6,0012.31,0006.73,0005.60
2022-01-06 02:22:00,,0824.1,5.00,0.00,21.6,21.6,00.0,30.7,22.9,05.5,0002.0,0012.05,0006.69,0005.60
2022-01-06 02:23:00,,0824.0,5.00,0.00,21.4,21.2,00.0,30.7,22.8,05.6,0002.3,0011.87,0006.67,0005.58
2022-01-06 02:24:00,,0824.1,5.01,0.00,21.3,20.8,00.0,30.6,22.6,05.6,0002.0,0011.73,0006.64,0005.58
2022-01-06 02:25:00,,0824.1,4.99,0.00,21.2,20.7,00.0,30.6,22.5,05.6,0001.8,0011.73,0006.68,0005.58
2022-01-06 02:26:00,,0824.1,5.00,0.00,21.3,21.3,00.0,30.6,22.8,05.6,0001.8,0011.64,0006.66,0005.58
2022-01-06 02:27:00,,0824.1,5.01,0.00,21.5,22.0,00.0,30.6,23.1,05.6,0001.7,0011.71,0006.70,0005.61
2022-01-06 02:28:00,,0824.1,4.99,0.00,21.6,22.5,00.0,30.7,23.4,05.5,0001.9,0011.85,0006.76,0005.62
2022-01-06 02:29:00,,0824.0,5.01,0.00,21.6,22.2,00.0,30.7,23.2,05.5,0002.2,0011.71,0006.72,0005.61
2022-01-06 02:30:00,,0824.1,5.01,0.00,21.5,21.6,00.0,30.6,22.9,05.5,0002.4,0011.72,0006.73,0005.60
2022-01-06 02:31:00,,0824.2,5.00,0.00,21.4,21.1,00.0,30.6,22.6,05.6,0002.5,0011.60,0006.68,0005.57
2022-01-06 02:32:00,,0824.2,5.00,0.00,21.2,20.7,00.0,30.6,22.4,05.6,0002.5,0011.42,0006.63,0005.57
2022-01-06 02:33:00,,0824.1,4.99,0.00,21.2,21.0,00.0,30.5,22.5,05.6,0002.4,0011.44,0006.65,0005.58
2022-01-06 02:34:00,,0824.1,5.01,0.00,21.3,21.7,00.0,30.6,22.9,05.6,0002.2,0011.52,0006.66,0005.58
2022-01-06 02:35:00,,0824.1,4.99,0.00,21.5,22.3,00.0,30.6,23.2,05.5,0002.7,0011.75,0006.68,0005.58
2022-01-06 02:36:00,,0824.0,5.01,0.00,21.7,22.7,00.0,30.6,23.4,05.5,0002.9,0011.81,0006.69,0005.57
2022-01-06 02:37:00,,0824.0,4.98,0.00,21.7,22.2,00.0,30.6,23.3,05.5,0002.7,0011.97,0006.74,0005.58
2022-01-06 02:38:00,,0824.1,5.01,0.00,21.5,21.6,00.0,30.6,23.0,05.5,0002.7,0011.93,0006.72,0005.57
2022-01-06 02:39:00,,0824.1,5.00,0.00,21.4,21.1,00.0,30.6,22.7,05.5,0002.4,0011.87,0006.66,0005.57
2022-01-06 02:40:00,,0824.1,5.00,0.00,21.2,20.7,00.0,30.5,22.5,05.5,0002.5,0011.74,0006.64,0005.57
2022-01-06 02:41:00,,0824.1,5.01,0.00,21.1,20.6,00.0,30.5,22.4,05.6,0002.7,0011.63,0006.63,0005.58
2022-01-06 02:42:00,,0824.1,4.99,0.00,21.2,21.2,00.0,30.5,22.7,05.6,0002.6,0011.48,0006.60,0005.57
2022-01-06 02:43:00,,0824.1,5.00,0.00,21.4,21.9,00.0,30.5,23.0,05.5,0002.3,0011.97,0006.64,0005.57
2022-01-06 02:44:00,,0824.0,5.00,0.00,21.5,22.6,00.0,30.6,23.3,05.5,0002.0,0012.03,0006.63,0005.55
2022-01-06 02:45:00,,0824.1,4.99,0.00,21.6,22.7,00.0,30.6,23.4,05.4,0001.6,0012.01,0006.60,0005.55
2022-01-06 02:46:00,,0824.3,5.00,0.00,21.6,22.0,00.0,30.6,23.1,05.4,0001.8,0011.69,0006.59,0005.55
2022-01-06 02:47:00,,0824.3,5.00,0.00,21.5,21.4,00.0,30.6,22.9,05.5,0001.6,0011.55,0006.53,0005.54
2022-01-06 02:48:00,,0824.4,5.00,0.00,21.4,20.9,00.0,30.5,22.7,05.5,0002.1,0011.40,0006.46,0005.53
2022-01-06 02:49:00,,0824.2,5.00,0.00,21.2,20.6,00.0,30.5,22.5,05.5,0002.2,0011.41,0006.45,0005.55
2022-01-06 02:50:00,,0824.2,5.00,0.00,21.1,20.4,00.0,30.5,22.3,05.6,0002.1,0011.49,0006.52,0005.58
2022-01-06 02:51:00,,0824.1,4.99,0.00,21.2,21.1,00.0,30.5,22.6,05.6,0001.7,0011.70,0006.62,0005.62
2022-01-06 02:52:00,,0824.1,5.00,0.00,21.3,21.8,00.0,30.5,23.0,05.5,0001.2,0011.67,0006.61,0005.65
2022-01-06 02:53:00,,0824.2,4.99,0.00,21.5,22.5,00.0,30.5,23.3,05.5,0001.2,0011.93,0006.64,0005.66
2022-01-06 02:54:00,,0824.2,5.00,0.00,21.6,22.7,00.0,30.6,23.4,05.4,0001.7,0011.55,0006.64,0005.67
2022-01-06 02:55:00,,0824.2,5.00,0.00,21.6,22.2,00.0,30.6,23.2,05.4,0002.2,0011.63,0006.66,0005.70
2022-01-06 02:56:00,,0824.1,5.00,0.00,21.5,21.6,00.0,30.6,22.9,05.4,0002.2,0011.66,0006.69,0005.72
2022-01-06 02:57:00,,0824.1,5.01,0.00,21.3,21.1,00.0,30.5,22.6,05.5,0002.1,0011.63,0006.67,0005.71
2022-01-06 02:58:00,,0824.1,4.99,0.00,21.2,20.7,00.0,30.5,22.4,05.5,0002.1,0011.69,0006.69,0005.71
2022-01-06 02:59:00,,0824.1,5.01,0.00,21.2,20.9,00.0,30.5,22.5,05.5,0001.6,0011.68,0006.71,0005.72
